Location: Grand Lay
(47.3253°N, 0.9468°E)
Time: 21:46:27
(UTC+00:00)

Cosmos 1932 - Pass Details

Date: 18 January 2026
Orbit: 920 x 1009 km, 65.0° (Epoch: 18 February)

Event Time Altitude Azimuth Distance (km) Brightness Sun altitude
Exits shadow 04:58:56 63° 258° (WSW) 1,101 4.4 -26.3°
Maximum altitude 04:59:51 73° 310° (NW) 1,042 4.4 -26.1°
Drops below altitude 10° 05:06:25 10° 35° (NE) 2,788 7.2 -25.0°
Sets 05:09:03 0° 37° (NE) 3,746 8.0 -24.6°
